Flag for Jamaica Weather past 2 weeks in Montego Bay, Jamaica

Now
88 °F

Passing clouds.


Feels Like: 105 °F
Forecast: N/A
Wind: 15 mph from Northeast

Location: Montego Bay / Sangster

Current Time: Sep 1, 2015 at 4:00:26 PM

Latest Report: Sep 1, 2015 at 3:00 PM


Visibility: N/A

Pressure: 29.92 "Hg

Humidity: 79%

Dew point: 81 °F

Location of Montego BayLocation

Historic Weather in Montego Bay — Graph

°F

Montego Bay temperature yesterday

Maximum temperature yesterday: 91 °F (at 12:00 PM)
Minimum temperature yesterday: 81 °F (at 3:00 AM)
Average temperature yesterday: 85 °F

Past Weeks' High & Low Weather Summary

 TemperatureHumidityPressure
High91 °F (Aug 30, 10:00 AM)100% (Aug 24, 6:00 AM)30.01 "Hg (Aug 24, 6:00 AM)
Low36 °F (Aug 24, 6:00 AM)55% (Aug 19, 9:00 AM)29.80 "Hg (Aug 28, 3:00 PM)
Average84 °F78%29.92 "Hg
* Reported Aug 17 2:00 PM — Sep 1 2:00 PM, Montego Bay, Weather by CustomWeather, © 2015

Note: Actual official high and low records may vary slightly from our data, if they occured in-between our weather recording intervals... More about our weather records

Advertising

Montego Bay weather history for previous 24 hours

 ConditionsComfort  
Time TempWeatherWind HumidityBarometerVisibility
2:00 PM
Tue, Sep 1
90 °FPassing clouds.14 mph75%29.95 "HgN/A
1:00 PM88 °FPassing clouds.14 mph79%29.98 "HgN/A
12:00 PM88 °FPassing clouds.14 mph79%29.98 "HgN/A
11:00 AM88 °FPassing clouds.14 mph75%30.01 "HgN/A
10:00 AM88 °FPassing clouds.14 mph75%30.01 "HgN/A
9:00 AM88 °FPassing clouds.9 mph75%30.01 "HgN/A
8:00 AM88 °FPassing clouds.3 mph70%30.01 "HgN/A
7:00 AM81 °FPassing clouds.1 mph84%30.01 "HgN/A
6:00 AM79 °FPassing clouds.1 mph84%29.98 "HgN/A
5:00 AM79 °FPassing clouds.1 mph84%29.98 "HgN/A
4:00 AM79 °FPassing clouds.2 mph89%29.98 "HgN/A
3:00 AM79 °FPassing clouds.3 mph89%29.95 "HgN/A
2:00 AM81 °FPassing clouds.5 mph84%29.98 "HgN/A
1:00 AM82 °FThundershowers. Passing clouds.2 mph79%29.98 "HgN/A
12:00 AM82 °FThundershowers. Passing clouds.5 mph79%29.98 "HgN/A
10:00 PM
Mon, Aug 31
82 °FThundershowers. Passing clouds.2 mph89%30.01 "HgN/A
9:00 PM82 °FPassing clouds.1 mph89%29.98 "HgN/A
8:00 PM82 °FPassing clouds.2 mph89%29.95 "HgN/A
7:00 PM84 °FPartly cloudy.3 mph84%29.92 "HgN/A
6:00 PM84 °FBroken clouds.5 mph84%29.92 "HgN/A
5:00 PM82 °FScattered clouds.2 mph89%29.92 "HgN/A
4:00 PM81 °FLight rain. Broken clouds.3 mph89%29.92 "HgN/A
Weather by CustomWeather, © 2015

See weather overviewHow to use our weather pages